Погода в Александровке 3-ей

Россия / Саратовская область     51°40′53″N   44°09′02″E
темп.,
°C
ветер,
м/с
пор.,
м/с
влажн.,
%
обл.,
%
осадки,
мм/ч
давл.,
гПа
погр.,
м
24 января, пн
пн2401:00−6в61195100 1.1 1028342
04:00−8всв61290100 1.1 1029293
07:00−11всв61387100 0.0 1029265
10:00−11всв61488100 0.0 1030292
13:00−9в6148874 0.0 1030349
16:00−8в6138887 0.0 1029332
19:00−11в513915 0.0 1030259
22:00−12в6139229 0.0 1030246
25 января, вт
вт2501:00−12в51193100 0.0 1029215
04:00−12в5119477 0.0 1029201
07:00−14в4109591 0.0 1028138
10:00−13вюв4996100 0.0 1027186
13:00−10юв4794100 0.0 1026238
16:00−8юв469482 0.2 1024245
19:00−10юв359767 0.1 102493
22:00−11ююв379785 0.2 1023114
26 января, ср
ср2601:00−11ю369785 0.1 1022104
04:00−12ю249784 0.2 102164
07:00−11ю249798 0.1 102073
10:00−8ююз2696100 0.3 1020152
13:00−6зюз3794100 0.2 1019299
16:00−7юз369677 0.3 1020199
19:00−14юз2210094 0.0 102122
22:00−15юз35100100 0.1 102251
27 января, чт
чт2701:00−12юз369997 0.1 102283
04:00−13ююз359897 0.1 102262
07:00−12ю359781 0.1 102273
10:00−13ю359898 0.1 102371
13:00−7ююз369694 0.1 1022193
16:00−7ю239781 0.1 102170
19:00−13ю22100100 0.0 102120
22:00−11ю2410097 0.1 102146
28 января, пт
пт2801:00−10ю229789 0.2 102041
04:00−11ююв229981 0.3 101928
07:00−13ю239998 0.1 101935
10:00−13ю349999 0.1 101955
13:00−8ю379790 0.0 1018208
16:00−8ююв499683 0.1 1017246
19:00−11ююв41198100 0.0 1016172
22:00−9ююв61395100 0.1 1013317